カタログに戻る

STARLINK-5615

運用中通信VLEO
NORAD 55425·PAYLOAD·🇺🇸 United States

打ち上げ Jan 31, 2023 から Vandenberg Space Force Base

Loading…

次のパス (今後24時間)

TLE

最新Source: CelesTrak SupGP

元期: Sep 15, 2026, 01:47 UTC

1 55425C 23014AL  26258.07479167  .00063663  00000+0  53360-2 0  2585
2 55425  70.0006 326.9874 0003315 268.8388 297.5075 14.98292732    13

AllMySatでSTARLINK-5615をリアルタイム追跡

Download on the App Store